Location: Anton
(37.3520°N, 87.3947°W)
Time: 21:13:34
(UTC+00:00)

N. Korean satellite - Pass Details

Date: 03 December 2022
Orbit: 407 x 442 km, 97.3° (Epoch: 05 February)

Event Time Altitude Azimuth Distance (km) Brightness Sun altitude
Rises 10:21:44 0° 28° (NNE) 2,511 10.4 -28.2°
Reaches altitude 10° 10:24:11 10° 45° (NE) 1,622 9.6 -27.8°
Maximum altitude 10:26:51 21° 95° (E) 1,105 9.1 -27.2°
Drops below altitude 10° 10:29:29 10° 145° (SE) 1,591 9.7 -26.7°
Sets 10:31:51 0° 163° (SSE) 2,446 10.5 -26.3°
